Time,TemperatureF,DewpointF,PressureIn,WindDirection,WindDirectionDegrees,WindSpeedMPH,WindSpeedGustMPH,Humidity,HourlyPrecipIn,Conditions,Clouds,dailyrainin,SolarRadiationWatts/m^2,SoftwareType,DateUTC
2013-07-17 00:00:00,71.0,68.0,-100.00,SSW,200,2.0,4.0,89,0.00,,,-99.99,0.000000,,2013-07-17 05:00:00,
2013-07-17 00:22:00,71.0,68.0,-100.00,SSW,200,2.0,4.0,89,0.00,,,-99.99,0.000000,,2013-07-17 05:22:00,
2013-07-17 00:32:00,71.0,68.0,-100.00,SSW,200,2.0,4.0,89,0.00,,,-99.99,0.000000,,2013-07-17 05:32:00,
2013-07-17 00:43:00,71.0,68.0,-100.00,SSW,200,2.0,4.0,89,0.00,,,-99.99,0.000000,,2013-07-17 05:43:00,
2013-07-17 00:52:00,71.0,68.0,-100.00,SSW,200,2.0,4.0,89,0.00,,,-99.99,0.000000,,2013-07-17 05:52:00,
2013-07-17 01:00:00,72.0,68.0,-100.00,WSW,239,2.0,5.0,86,0.00,,,-99.99,0.000000,,2013-07-17 06:00:00,
2013-07-17 01:22:00,72.0,68.0,-100.00,WSW,239,2.0,5.0,86,0.00,,,-99.99,0.000000,,2013-07-17 06:22:00,
2013-07-17 01:33:00,72.0,68.0,-100.00,WSW,239,2.0,5.0,86,0.00,,,-99.99,0.000000,,2013-07-17 06:33:00,
2013-07-17 01:43:00,72.0,68.0,-100.00,WSW,239,2.0,5.0,86,0.00,,,-99.99,0.000000,,2013-07-17 06:43:00,
2013-07-17 01:52:00,72.0,68.0,-100.00,WSW,239,2.0,5.0,86,0.00,,,-99.99,0.000000,,2013-07-17 06:52:00,
2013-07-17 02:00:00,72.0,68.0,-100.00,SSW,197,3.0,5.0,87,0.00,,,-99.99,0.000000,,2013-07-17 07:00:00,
2013-07-17 02:22:00,72.0,68.0,-100.00,SSW,197,3.0,5.0,87,0.00,,,-99.99,0.000000,,2013-07-17 07:22:00,
2013-07-17 02:32:00,72.0,68.0,-100.00,SSW,197,3.0,5.0,87,0.00,,,-99.99,0.000000,,2013-07-17 07:32:00,
2013-07-17 02:42:00,72.0,68.0,-100.00,SSW,197,3.0,5.0,87,0.00,,,-99.99,0.000000,,2013-07-17 07:42:00,
2013-07-17 02:52:00,72.0,68.0,-100.00,SSW,197,3.0,5.0,87,0.00,,,-99.99,0.000000,,2013-07-17 07:52:00,
2013-07-17 03:00:00,70.0,67.0,-100.00,WSW,241,1.0,4.0,89,0.00,,,-99.99,0.000000,,2013-07-17 08:00:00,
2013-07-17 03:22:00,70.0,67.0,-100.00,WSW,241,1.0,4.0,89,0.00,,,-99.99,0.000000,,2013-07-17 08:22:00,
2013-07-17 03:32:00,70.0,67.0,-100.00,WSW,241,1.0,4.0,89,0.00,,,-99.99,0.000000,,2013-07-17 08:32:00,
2013-07-17 03:43:00,70.0,67.0,-100.00,WSW,241,1.0,4.0,89,0.00,,,-99.99,0.000000,,2013-07-17 08:43:00,
2013-07-17 03:53:00,70.0,67.0,-100.00,WSW,241,1.0,4.0,89,0.00,,,-99.99,0.000000,,2013-07-17 08:53:00,
2013-07-17 04:00:00,70.0,67.0,-100.00,SSW,196,2.0,4.0,90,0.00,,,-99.99,0.000000,,2013-07-17 09:00:00,
2013-07-17 04:22:00,70.0,67.0,-100.00,SSW,196,2.0,4.0,90,0.00,,,-99.99,0.000000,,2013-07-17 09:22:00,
2013-07-17 04:32:00,70.0,67.0,-100.00,SSW,196,2.0,4.0,90,0.00,,,-99.99,0.000000,,2013-07-17 09:32:00,
2013-07-17 04:43:00,70.0,67.0,-100.00,SSW,196,2.0,4.0,90,0.00,,,-99.99,0.000000,,2013-07-17 09:43:00,
2013-07-17 04:52:00,70.0,67.0,-100.00,SSW,196,2.0,4.0,90,0.00,,,-99.99,0.000000,,2013-07-17 09:52:00,
2013-07-17 05:00:00,70.0,67.0,-100.00,SSW,200,3.0,5.0,91,0.00,,,-99.99,0.000000,,2013-07-17 10:00:00,
2013-07-17 05:22:00,70.0,67.0,-100.00,SSW,200,3.0,5.0,91,0.00,,,-99.99,0.000000,,2013-07-17 10:22:00,
2013-07-17 05:32:00,70.0,67.0,-100.00,SSW,200,3.0,5.0,91,0.00,,,-99.99,0.000000,,2013-07-17 10:32:00,
2013-07-17 05:43:00,70.0,67.0,-100.00,SSW,200,3.0,5.0,91,0.00,,,-99.99,0.000000,,2013-07-17 10:43:00,
2013-07-17 05:52:00,70.0,67.0,-100.00,SSW,200,3.0,5.0,91,0.00,,,-99.99,0.000000,,2013-07-17 10:52:00,
2013-07-17 06:00:00,69.0,67.0,-100.00,SSW,199,3.0,6.0,92,0.00,,,-99.99,8.000000,,2013-07-17 11:00:00,
2013-07-17 06:32:00,69.0,67.0,-100.00,SSW,199,3.0,6.0,92,0.00,,,-99.99,8.000000,,2013-07-17 11:32:00,
2013-07-17 06:42:00,69.0,67.0,-100.00,SSW,199,3.0,6.0,92,0.00,,,-99.99,8.000000,,2013-07-17 11:42:00,
2013-07-17 06:52:00,69.0,67.0,-100.00,SSW,199,3.0,6.0,92,0.00,,,-99.99,8.000000,,2013-07-17 11:52:00,
2013-07-17 07:00:00,73.0,69.0,-100.00,SSW,211,4.0,6.0,86,0.00,,,-99.99,120.000000,,2013-07-17 12:00:00,
2013-07-17 07:22:00,73.0,69.0,-100.00,SSW,211,4.0,6.0,86,0.00,,,-99.99,120.000000,,2013-07-17 12:22:00,
2013-07-17 07:32:00,73.0,69.0,-100.00,SSW,211,4.0,6.0,86,0.00,,,-99.99,120.000000,,2013-07-17 12:32:00,
2013-07-17 07:43:00,73.0,69.0,-100.00,SSW,211,4.0,6.0,86,0.00,,,-99.99,120.000000,,2013-07-17 12:43:00,
2013-07-17 07:53:00,73.0,69.0,-100.00,SSW,211,4.0,6.0,86,0.00,,,-99.99,120.000000,,2013-07-17 12:53:00,
2013-07-17 08:00:00,77.0,68.0,-100.00,SW,232,4.0,8.0,75,0.00,,,-99.99,307.000000,,2013-07-17 13:00:00,
2013-07-17 08:22:00,77.0,68.0,-100.00,SW,232,4.0,8.0,75,0.00,,,-99.99,307.000000,,2013-07-17 13:22:00,
2013-07-17 08:32:00,77.0,68.0,-100.00,SW,232,4.0,8.0,75,0.00,,,-99.99,307.000000,,2013-07-17 13:32:00,
2013-07-17 08:43:00,77.0,68.0,-100.00,SW,232,4.0,8.0,75,0.00,,,-99.99,307.000000,,2013-07-17 13:43:00,
2013-07-17 08:53:00,77.0,68.0,-100.00,SW,232,4.0,8.0,75,0.00,,,-99.99,307.000000,,2013-07-17 13:53:00,
2013-07-17 09:00:00,81.0,69.0,-100.00,WSW,256,4.0,9.0,66,0.00,,,-99.99,499.000000,,2013-07-17 14:00:00,
2013-07-17 09:22:00,81.0,69.0,-100.00,WSW,256,4.0,9.0,66,0.00,,,-99.99,499.000000,,2013-07-17 14:22:00,
2013-07-17 09:32:00,81.0,69.0,-100.00,WSW,256,4.0,9.0,66,0.00,,,-99.99,499.000000,,2013-07-17 14:32:00,
2013-07-17 09:43:00,81.0,69.0,-100.00,WSW,256,4.0,9.0,66,0.00,,,-99.99,499.000000,,2013-07-17 14:43:00,
2013-07-17 09:52:00,81.0,69.0,-100.00,WSW,256,4.0,9.0,66,0.00,,,-99.99,499.000000,,2013-07-17 14:52:00,
2013-07-17 10:00:00,83.0,67.0,-100.00,WSW,252,5.0,10.0,58,0.00,,,-99.99,686.000000,,2013-07-17 15:00:00,
2013-07-17 10:22:00,83.0,67.0,-100.00,WSW,252,5.0,10.0,58,0.00,,,-99.99,686.000000,,2013-07-17 15:22:00,
2013-07-17 10:32:00,83.0,67.0,-100.00,WSW,252,5.0,10.0,58,0.00,,,-99.99,686.000000,,2013-07-17 15:32:00,
2013-07-17 10:42:00,83.0,67.0,-100.00,WSW,252,5.0,10.0,58,0.00,,,-99.99,686.000000,,2013-07-17 15:42:00,
2013-07-17 10:52:00,83.0,67.0,-100.00,WSW,252,5.0,10.0,58,0.00,,,-99.99,686.000000,,2013-07-17 15:52:00,
2013-07-17 11:00:00,85.0,66.0,-100.00,WSW,242,6.0,13.0,53,0.00,,,-99.99,818.000000,,2013-07-17 16:00:00,
2013-07-17 11:22:00,85.0,66.0,-100.00,WSW,242,6.0,13.0,53,0.00,,,-99.99,818.000000,,2013-07-17 16:22:00,
2013-07-17 11:33:00,85.0,66.0,-100.00,WSW,242,6.0,13.0,53,0.00,,,-99.99,818.000000,,2013-07-17 16:33:00,
2013-07-17 11:43:00,85.0,66.0,-100.00,WSW,242,6.0,13.0,53,0.00,,,-99.99,818.000000,,2013-07-17 16:43:00,
2013-07-17 11:52:00,85.0,66.0,-100.00,WSW,242,6.0,13.0,53,0.00,,,-99.99,818.000000,,2013-07-17 16:52:00,
2013-07-17 12:00:00,86.0,66.0,-100.00,SW,224,7.0,14.0,52,0.00,,,0.00,816.000000,,2013-07-17 17:00:00,
2013-07-17 12:22:00,86.0,66.0,-100.00,SW,224,7.0,14.0,52,0.00,,,0.00,816.000000,,2013-07-17 17:22:00,
2013-07-17 12:32:00,86.0,66.0,-100.00,SW,224,7.0,14.0,52,0.00,,,0.00,816.000000,,2013-07-17 17:32:00,
2013-07-17 12:43:00,86.0,66.0,-100.00,SW,224,7.0,14.0,52,0.00,,,0.00,816.000000,,2013-07-17 17:43:00,
2013-07-17 12:52:00,86.0,66.0,-100.00,SW,224,7.0,14.0,52,0.00,,,0.00,816.000000,,2013-07-17 17:52:00,
2013-07-17 13:00:00,85.0,66.0,-100.00,SW,231,6.0,15.0,53,0.00,,,0.00,648.000000,,2013-07-17 18:00:00,
2013-07-17 13:22:00,85.0,66.0,-100.00,SW,231,6.0,15.0,53,0.00,,,0.00,648.000000,,2013-07-17 18:22:00,
2013-07-17 13:32:00,85.0,66.0,-100.00,SW,231,6.0,15.0,53,0.00,,,0.00,648.000000,,2013-07-17 18:32:00,
2013-07-17 13:43:00,85.0,66.0,-100.00,SW,231,6.0,15.0,53,0.00,,,0.00,648.000000,,2013-07-17 18:43:00,
2013-07-17 13:52:00,85.0,66.0,-100.00,SW,231,6.0,15.0,53,0.00,,,0.00,648.000000,,2013-07-17 18:52:00,
2013-07-17 14:00:00,84.0,66.0,-100.00,SW,230,7.0,19.0,55,0.00,,,0.00,571.000000,,2013-07-17 19:00:00,
2013-07-17 14:22:00,84.0,66.0,-100.00,SW,230,7.0,19.0,55,0.00,,,0.00,571.000000,,2013-07-17 19:22:00,
2013-07-17 14:32:00,84.0,66.0,-100.00,SW,230,7.0,19.0,55,0.00,,,0.00,571.000000,,2013-07-17 19:32:00,
2013-07-17 14:43:00,84.0,66.0,-100.00,SW,230,7.0,19.0,55,0.00,,,0.00,571.000000,,2013-07-17 19:43:00,
2013-07-17 14:53:00,84.0,66.0,-100.00,SW,230,7.0,19.0,55,0.00,,,0.00,571.000000,,2013-07-17 19:53:00,
2013-07-17 15:00:00,88.0,68.0,-100.00,SW,217,8.0,17.0,51,0.00,,,0.00,946.000000,,2013-07-17 20:00:00,
2013-07-17 15:22:00,88.0,68.0,-100.00,SW,217,8.0,17.0,51,0.00,,,0.00,946.000000,,2013-07-17 20:22:00,
2013-07-17 15:33:00,88.0,68.0,-100.00,SW,217,8.0,17.0,51,0.00,,,0.00,946.000000,,2013-07-17 20:33:00,
2013-07-17 15:43:00,88.0,68.0,-100.00,SW,217,8.0,17.0,51,0.00,,,0.00,946.000000,,2013-07-17 20:43:00,
2013-07-17 15:53:00,88.0,68.0,-100.00,SW,217,8.0,17.0,51,0.00,,,0.00,946.000000,,2013-07-17 20:53:00,
2013-07-17 16:00:00,88.0,66.0,-100.00,SW,220,8.0,16.0,49,0.00,,,0.00,838.000000,,2013-07-17 21:00:00,
2013-07-17 16:22:00,88.0,66.0,-100.00,SW,220,8.0,16.0,49,0.00,,,0.00,838.000000,,2013-07-17 21:22:00,
2013-07-17 16:32:00,88.0,66.0,-100.00,SW,220,8.0,16.0,49,0.00,,,0.00,838.000000,,2013-07-17 21:32:00,
2013-07-17 16:42:00,88.0,66.0,-100.00,SW,220,8.0,16.0,49,0.00,,,0.00,838.000000,,2013-07-17 21:42:00,
2013-07-17 16:53:00,88.0,66.0,-100.00,SW,220,8.0,16.0,49,0.00,,,0.00,838.000000,,2013-07-17 21:53:00,
2013-07-17 17:00:00,86.0,66.0,-100.00,SW,227,6.0,16.0,51,0.00,,,-99.99,596.000000,,2013-07-17 22:00:00,
2013-07-17 17:22:00,86.0,66.0,-100.00,SW,227,6.0,16.0,51,0.00,,,-99.99,596.000000,,2013-07-17 22:22:00,
2013-07-17 17:32:00,86.0,66.0,-100.00,SW,227,6.0,16.0,51,0.00,,,-99.99,596.000000,,2013-07-17 22:32:00,
2013-07-17 17:43:00,86.0,66.0,-100.00,SW,227,6.0,16.0,51,0.00,,,-99.99,596.000000,,2013-07-17 22:43:00,
2013-07-17 17:53:00,86.0,66.0,-100.00,SW,227,6.0,16.0,51,0.00,,,-99.99,596.000000,,2013-07-17 22:53:00,
2013-07-17 18:00:00,87.0,67.0,-100.00,SW,225,7.0,15.0,51,0.00,,,-99.99,408.000000,,2013-07-17 23:00:00,
2013-07-17 18:22:00,87.0,67.0,-100.00,SW,225,7.0,15.0,51,0.00,,,-99.99,408.000000,,2013-07-17 23:22:00,
2013-07-17 18:33:00,87.0,67.0,-100.00,SW,225,7.0,15.0,51,0.00,,,-99.99,408.000000,,2013-07-17 23:33:00,
2013-07-17 18:43:00,87.0,67.0,-100.00,SW,225,7.0,15.0,51,0.00,,,-99.99,408.000000,,2013-07-17 23:43:00,
2013-07-17 18:52:00,87.0,67.0,-100.00,SW,225,7.0,15.0,51,0.00,,,-99.99,408.000000,,2013-07-17 23:52:00,
2013-07-17 19:00:00,85.0,69.0,-100.00,SW,232,4.0,11.0,58,0.00,,,0.00,164.000000,,2013-07-18 00:00:00,
2013-07-17 19:22:00,85.0,69.0,-100.00,SW,232,4.0,11.0,58,0.00,,,0.00,164.000000,,2013-07-18 00:22:00,
2013-07-17 19:33:00,85.0,69.0,-100.00,SW,232,4.0,11.0,58,0.00,,,0.00,164.000000,,2013-07-18 00:33:00,
2013-07-17 19:43:00,85.0,69.0,-100.00,SW,232,4.0,11.0,58,0.00,,,0.00,164.000000,,2013-07-18 00:43:00,
2013-07-17 19:52:00,85.0,69.0,-100.00,SW,232,4.0,11.0,58,0.00,,,0.00,164.000000,,2013-07-18 00:52:00,
2013-07-17 20:00:00,81.0,67.0,-100.00,SW,224,3.0,9.0,63,0.00,,,0.00,99.000000,,2013-07-18 01:00:00,
2013-07-17 20:22:00,81.0,67.0,-100.00,SW,224,3.0,9.0,63,0.00,,,0.00,99.000000,,2013-07-18 01:22:00,
2013-07-17 20:32:00,81.0,67.0,-100.00,SW,224,3.0,9.0,63,0.00,,,0.00,99.000000,,2013-07-18 01:32:00,
2013-07-17 20:43:00,81.0,67.0,-100.00,SW,224,3.0,9.0,63,0.00,,,0.00,99.000000,,2013-07-18 01:43:00,
2013-07-17 20:53:00,81.0,67.0,-100.00,SW,224,3.0,9.0,63,0.00,,,0.00,99.000000,,2013-07-18 01:53:00,
2013-07-17 21:00:00,77.0,68.0,-100.00,South,179,0.0,5.0,74,0.00,,,0.00,15.000000,,2013-07-18 02:00:00,
2013-07-17 21:22:00,77.0,68.0,-100.00,South,179,0.0,5.0,74,0.00,,,0.00,15.000000,,2013-07-18 02:22:00,
2013-07-17 21:32:00,77.0,68.0,-100.00,South,179,0.0,5.0,74,0.00,,,0.00,15.000000,,2013-07-18 02:32:00,
2013-07-17 21:43:00,77.0,68.0,-100.00,South,179,0.0,5.0,74,0.00,,,0.00,15.000000,,2013-07-18 02:43:00,
2013-07-17 21:52:00,77.0,68.0,-100.00,South,179,0.0,5.0,74,0.00,,,0.00,15.000000,,2013-07-18 02:52:00,
2013-07-17 22:00:00,75.0,67.0,-100.00,SSW,205,2.0,4.0,77,0.00,,,0.00,0.000000,,2013-07-18 03:00:00,
2013-07-17 22:22:00,75.0,67.0,-100.00,SSW,205,2.0,4.0,77,0.00,,,0.00,0.000000,,2013-07-18 03:22:00,
2013-07-17 22:32:00,75.0,67.0,-100.00,SSW,205,2.0,4.0,77,0.00,,,0.00,0.000000,,2013-07-18 03:32:00,
2013-07-17 22:43:00,75.0,67.0,-100.00,SSW,205,2.0,4.0,77,0.00,,,0.00,0.000000,,2013-07-18 03:43:00,
2013-07-17 22:52:00,75.0,67.0,-100.00,SSW,205,2.0,4.0,77,0.00,,,0.00,0.000000,,2013-07-18 03:52:00,
2013-07-17 23:00:00,74.0,67.0,-100.00,SSW,208,3.0,5.0,80,0.00,,,0.00,0.000000,,2013-07-18 04:00:00,
2013-07-17 23:32:00,74.0,67.0,-100.00,SSW,208,3.0,5.0,80,0.00,,,0.00,0.000000,,2013-07-18 04:32:00,
2013-07-17 23:43:00,74.0,67.0,-100.00,SSW,208,3.0,5.0,80,0.00,,,0.00,0.000000,,2013-07-18 04:43:00,
2013-07-17 23:52:00,74.0,67.0,-100.00,SSW,208,3.0,5.0,80,0.00,,,0.00,0.000000,,2013-07-18 04:52:00,